Skip Page Navigation
NASA JPL Caltech
NASA Logo - Jet Propulsion Laboratory + View the NASA Portal
+ Near-Earth Object (NEO) Program
Search JPL
JPL Home Earth Solar System Stars & Galaxies Technology
JPL Solar System Dynamics
BODIES ORBITS EPHEMERIDES TOOLS PHYSICAL DATA DISCOVERY FAQ SITE MAP
JPL Small-Body Database Browser
Search: [ help ]  
86067 (1999 RM28)
Classification: Amor [NEO]          SPK-ID: 2086067
Ephemeris | Orbit Diagram | Orbital Elements | Physical Parameters | Discovery Circumstances | Close-Approach Data ]

[ show orbit diagram ]
Orbital Elements at Epoch 2457000.5 (2014-Dec-09.0) TDB
Reference: JPL 75 (heliocentric ecliptic J2000)
 Element Value Uncertainty (1-sigma)   Units 
e .3237483046432656 8.7795e-08  
a 1.8171655197251 1.4778e-08 AU
q 1.2288612634579 1.5188e-07 AU
i 30.54301655213794 1.1745e-05 deg
node 136.1026370514367 8.126e-06 deg
peri 301.8551380394201 2.1081e-05 deg
M 24.34227126956565 2.2162e-05 deg
tp 2456940.000922102044
(2014-Oct-09.50092210)
5.4487e-05 JED
period 894.7262070197397
2.45
1.0914e-05
2.988e-08
d
yr
n .4023577237098382 4.9081e-09 deg/d
Q 2.405469775992299 1.9562e-08 AU
  Orbit Determination Parameters
   # obs. used (total)      382  
   data-arc span      9284 days (25.42 yr)  
   first obs. used      1989-07-07  
   last obs. used      2014-12-07  
   planetary ephem.      DE431  
   SB-pert. ephem.      SB431-BIG16  
   condition code      0  
   fit RMS      .55726  
   data source      ORB  
   producer      Otto Matic  
   solution date      2014-Dec-08 05:16:04  

Additional Information
 Earth MOID = .363953 AU 
 T_jup = 3.827 
[ show covariance matrix ]

Ephemeris | Orbit Diagram | Orbital Elements | Physical Parameters | Discovery Circumstances | Close-Approach Data ]

Physical Parameter Table
Parameter Symbol Value Units Sigma Reference Notes
absolute magnitude H 16.3 mag n/a MPO214397  

86067 (1999 RM28)          Discovered 1999-Sep-03 by McNaught, R. H. at Siding Spring (413)
Reference: 20040830/Numbers.arcLast Updated: 2004-09-06

[ show close-approach data ]
Ephemeris | Orbit Diagram | Orbital Elements | Physical Parameters | Discovery Circumstances | Close-Approach Data ]
ABOUT SSD CREDITS/AWARDS PRIVACY/COPYRIGHT GLOSSARY LINKS
FirstGov 2014-Dec-20 23:00 UT
(server date/time)  
NASA Home Page
Site Manager:   Donald K. Yeomans
Webmaster  Alan B. Chamberlin